Location: Dal�� Lhota
(48.7500°N, 14.0167°E)
Time: 07:59:37
(UTC+00:00)

Explorer 7 - Pass Details

Date: 02 August 2021
Orbit: 484 x 676 km, 50.3° (Epoch: 21 September)

Event Time Altitude Azimuth Distance (km) Brightness Sun altitude
Rises 10:21:28 0° 282° (WNW) 2,732 10.2 57.4°
Reaches altitude 10° 10:24:23 10° 260° (W) 1,875 9.6 57.5°
Maximum altitude 10:26:59 16° 223° (SW) 1,565 9.6 57.7°
Drops below altitude 10° 10:29:40 10° 186° (S) 1,944 10.3 57.8°
Sets 10:32:46 0° 164° (SSE) 2,887 11.0 58.0°
